Regional Weather Roundup
Issued by NWS

Home | Current Version | Previous Version | Text Only | Print | Product List | Glossary On
Versions: 1 2 3 4 5 6 7 8 9 10 11 12 13 14 15 16 17 18 19 20 21 22 23 24 25 26 27 28 29 30 31 32 33 34 35 36 37 38 39 40 41 42 43 44 45 46 47 48 49 50
000
ASUS44 KFWD 300115
RWRTX
NORTH TEXAS HOURLY WEATHER ROUNDUP
NATIONAL WEATHER SERVICE FORT WORTH TX
800 PM CDT SUN MAR 29 2015

NOTE: "FAIR" INDICATES FEW OR NO CLOUDS BELOW 12,000 FEET WITH NO
SIGNIFICANT WEATHER AND/OR OBSTRUCTIONS TO VISIBILITY.

TXZ118-119-300200-
DALLAS/FORT WORTH METROPLEX

CITY           SKY/WX    TMP DP  RH WIND       PRES   REMARKS
DFW AIRPORT    PTCLDY    78  53  41 S12       29.97R
DALLAS LOVE    PTCLDY    80  52  37 S15       29.97R
FTW MEACHAM    CLEAR     78  55  44 SE14G23   29.95R
DAL-EXECUTIVE  CLEAR     78  54  43 S10G21    29.97S
FTW-ALLIANCE   MOCLDY    78  55  44 S10       29.97R
FTW-NAS-JRB    CLEAR     81  56  42 S13G22    29.99R
ARLINGTON      CLEAR     79  51  37 SE13G22   29.97R
GRAND PRAIRIE  CLEAR     79  55  44 S9G17     29.98S
ADDISON        PTCLDY    79  50  36 S14G21    29.98S
MESQUITE       CLEAR     75  52  43 SE10G17   30.00R
LANCASTER      CLEAR     74  53  48 S8        30.00S
$$

TXZ091>094-102>105-117-120-121-131>134-300200-
NORTH CENTRAL TEXAS

CITY           SKY/WX    TMP DP  RH WIND       PRES   REMARKS
SHRMAN/DENISON MOCLDY    79  61  53 CALM      30.02R
GAINESVILLE    CLOUDY    76  52  42 N13       30.04R
BOWIE          PTCLDY    74  52  44 N8        30.03R
BRIDGEPORT     CLEAR     77  54  44 N13G18    30.01R
DECATUR        CLEAR     77  53  43 NE10      30.00R
DENTON         MOCLDY    78  57  48 SE8       29.98R
MCKINNEY       CLEAR     75  55  49 SE10      29.99R
GREENVILLE     CLEAR     75  52  43 S6        30.01R
ROCKWALL       CLEAR     76  55  46 S13G21    29.98S
TERRELL        CLEAR     76  54  46 S6        30.01R
WAXAHACHIE     CLEAR     74  56  52 S9        30.00S
CLEBURNE       CLEAR     75  55  50 S13       29.99R
GRANBURY         N/A     82  53  37 SE7       29.96R
$$

TXZ083>090-098>101-113>116-127>130-139>142-154-155-300200-
WESTERN NORTH TEXAS

CITY           SKY/WX    TMP DP  RH WIND       PRES   REMARKS
WICHITA FALLS  CLEAR     69  48  47 N14       30.05R
WF-KICKAPOO    CLEAR     74  46  37 N14G22    30.05R
VERNON         CLEAR     72  30  20 E8        30.09R
ABILENE        CLEAR     75  47  36 N15       30.05R
ABILENE-DYESS  CLEAR     75  51  42 N18G24    30.04R
BRECKENRIDGE   CLEAR     79  47  33 N15G28    30.01R
GRAHAM         CLEAR     74  53  47 N10       30.01R
MINERAL WELLS  PTCLDY    79  52  38 N18       29.97R
STEPHENVILLE   PTCLDY    79  51  37 S5        29.99R
COMANCHE       CLEAR     78  53  42 S10       29.97R
BROWNWOOD      CLEAR     79  50  36 NW9       29.98R
COLEMAN        CLEAR     78  51  38 N17G23    30.00R
BRADY          CLEAR     82  48  30 S9        29.98R
$$

TXZ143>147-156>162-174-175-300200-
CENTRAL TEXAS

CITY           SKY/WX    TMP DP  RH WIND       PRES   REMARKS
WACO           CLEAR     74  54  49 S15       30.01R
WACO-MCGREGOR  CLEAR     75  52  43 S13       30.02R
HILLSBORO      CLEAR     74  55  52 SE10      29.99F
CORSICANA      CLEAR     74  53  48 SW6       30.03R
MEXIA          CLEAR     75  56  50 S13G21    30.00R
HEARNE         CLEAR     74  56  52 SE15G22   30.03S
CAMERON        CLEAR     75  56  51 S15G21    30.02R
TEMPLE         CLEAR     73  54  49 S14       30.01R
KILLEEN        CLEAR     76  53  44 S8        30.01R
KILLEEN-SKYLRK CLEAR     75  55  50 MISG      30.02R
FORT HOOD      CLEAR     76  56  50 S12       30.01R
GATESVILLE     CLEAR     77  54  44 S8        30.02R
HAMILTON       CLEAR     78  49  36 S16G26    29.99S
$$

TXZ095>097-106>112-122>126-135>138-148>153-164>167-300200-
EAST TEXAS

CITY           SKY/WX    TMP DP  RH WIND       PRES   REMARKS
SULPHUR SPRNGS CLEAR     75  50  41 SW8       30.04R
MOUNT PLEASANT PTCLDY    76  51  41 SW6       30.03R
GILMER         CLEAR     76  55  47 CALM      30.02R
MINEOLA        CLEAR     79  48  34 S5        30.03R
TYLER          CLEAR     77  53  43 SW14      30.02R
LONGVIEW       CLEAR     75  57  53 S10       30.00R
MARSHALL         N/A     78  58  50 S7        30.04R
ATHENS         CLEAR     75  54  46 S6        30.02R
PALESTINE      CLEAR     76  53  44 S9G16     30.02R
JACKSONVILLE   CLEAR     76  55  48 S10G16    30.04S
HENDERSON      CLEAR     75  57  53 S9        30.02S
NACOGDOCHES    CLEAR     73  57  56 S10       30.05S
LUFKIN         CLEAR     76  61  59 S13       30.07R
$$

SUPPLEMENTAL OBSERVATIONS (CENTRAL)

CITY           SKY/WX    TMP DP  RH WIND       PRES   REMARKS
CADDO GRASSLND   N/A     75  57  53 SW1G9       N/A
PAT MAYSE LAKE   N/A     70  55  60 S3          N/A
GREENVILLE       N/A     75  52  43 S1G10       N/A
CEDAR HILL       N/A     77  52  41 SE10G20     N/A
LAKE LIMESTONE   N/A     73  54  49 S13G22      N/A
MCGREGOR         N/A     73  54  49 S13G22      N/A
TEMPLE           N/A     73  54  49 S14G26      N/A
$$

SUPPLEMENTAL OBSERVATIONS (WEST)

CITY           SKY/WX    TMP DP  RH WIND       PRES   REMARKS
MILLERS CREEK    N/A     72  45  37 NE13G21     N/A
POSSUM KINGDOM   N/A     75  48  38 N10G23      N/A
LBJ GRASSLAND    N/A     79  50  36 N8G20       N/A
GRANBURY         N/A     81  52  36 SE7G15      N/A
COMANCHE         N/A     75  48  38 S9          N/A
HAMBY            N/A     73  48  40 N8G23       N/A
IVIE RESERVOIR   N/A     81  46  30 VRB18G24    N/A
COLORADO BEND    N/A     75  52  43 S9G17       N/A
$$

SUPPLEMENTAL OBSERVATIONS (EAST)

CITY           SKY/WX    TMP DP  RH WIND       PRES   REMARKS
CLARKSVILLE      N/A     73  54  49 W1          N/A
TEXARKANA        N/A     72  52  49 CALM        N/A
LINDEN           N/A     75  52  43 SW3G12      N/A
GILMER           N/A     75  52  43 SW2         N/A
HENDERSON        N/A     75  55  50 S10G18      N/A
LUFKIN           N/A     73  57  56 MISG        N/A
N SABINE NF      N/A     72  55  56 MISG        N/A
S SABINE NF      N/A     70  55  60 CALM        N/A
$$

SUPPLEMENTAL OBSERVATIONS ARE A COLLECTION OF AUTOMATED INSTRUMENTS
THAT ARE MAINTAINED BY A VARIETY OF FEDERAL AND STATE AGENCIES.
CERTAIN ELEMENTS...SUCH AS HUMIDITY VALUES AND SUSTAINED WIND
SPEEDS...MAY BE APPROXIMATED.



USA.gov is the U.S. government's official web portal to all federal, state and local government web resources and services.